Milan, Italy

1:28 PM CEST on April 25, 2017 (GMT +0200)
Milan Malpensa Airport

Weather History for LIMC - March, 2013

Change the Weather History Date:

Friday, March 15, 2013

  Actual Average Record
Temperature  
Mean Temperature 40 °F -  
Max Temperature 48 °F 60 °F 69 °F (1999)
Min Temperature 32 °F 36 °F 24 °F (2006)
Degree Days  
Heating Degree Days 24    
Moisture  
Dew Point -2 °F    
Average Humidity 16    
Maximum Humidity 23    
Minimum Humidity 12    
Precipitation  
Precipitation 0.00 in 0.14 in - ()
Sea Level Pressure  
Sea Level Pressure 29.70 in    
Wind  
Wind Speed 7 mph ()    
Max Wind Speed 10 mph    
Max Gust Speed -    
Averages and records for this station are not official NWS values.
T = Trace of Precipitation, MM = Missing Value Source: Averaged Metar Reports

Daily Weather History Graph

Daily Weather History Graph

Search for Another Location

Airport or City:

Trip Planner

Search our weather history database for the weather conditions in past years. The results will help you decide how hot, cold, wet, or windy it might be!

Date:

Astronomy

Mar. 15, 2013 Rise Set
Actual Time 6:37 AM CET 6:30 PM CET
Civil Twilight 6:08 AM CET 7:00 PM CET
Nautical Twilight 5:33 AM CET 7:35 PM CET
Astronomical Twilight 4:58 AM CET 8:10 PM CET
Moon 8:05 AM CET (3/15) 10:43 PM CET (3/15)
Length of Visible Light 12h 52m
Length of Day
11h 53m
Waxing Crescent, 14% of the Moon is Illuminated
Mar 15
Waxing Crescent
Mar 19
First Quarter
Mar 27
Full
Apr 3
Last Quarter
Apr 10
New

Hourly Weather History & Observations

Time (CET) Temp. Windchill Dew Point Humidity Pressure Visibility Wind Dir Wind Speed Gust Speed Precip Events Conditions
12:20 AM 39.2 °F 33.0 °F -0.4 °F 19% 29.50 in - North 9.2 mph - N/A   Clear
12:50 AM 39.2 °F 33.0 °F -0.4 °F 19% 29.50 in - North 9.2 mph - N/A   Clear
1:20 AM 37.4 °F 32.1 °F -0.4 °F 20% 29.53 in - North 6.9 mph - N/A   Clear
1:50 AM 37.4 °F 32.1 °F -2.2 °F 19% 29.53 in - North 6.9 mph - N/A   Clear
2:20 AM 37.4 °F 32.1 °F -0.4 °F 20% 29.53 in - North 6.9 mph - N/A   Clear
2:50 AM 37.4 °F 32.1 °F -0.4 °F 20% 29.53 in - North 6.9 mph - N/A   Clear
3:20 AM 37.4 °F 32.1 °F -0.4 °F 20% 29.53 in - North 6.9 mph - N/A   Clear
3:50 AM 37.4 °F 32.8 °F -0.4 °F 20% 29.53 in - North 5.8 mph - N/A   Clear
4:20 AM 37.4 °F 32.1 °F -2.2 °F 19% 29.56 in - North 6.9 mph - N/A   Clear
4:50 AM 37.4 °F 32.1 °F -2.2 °F 19% 29.56 in - North 6.9 mph - N/A   Clear
5:20 AM 37.4 °F 32.8 °F -2.2 °F 19% 29.56 in - North 5.8 mph - N/A   Clear
5:50 AM 35.6 °F 30.7 °F -2.2 °F 20% 29.59 in - North 5.8 mph - N/A   Clear
6:20 AM 35.6 °F 30.7 °F -2.2 °F 20% 29.59 in - North 5.8 mph - N/A   Clear
6:50 AM 35.6 °F 30.7 °F -2.2 °F 20% 29.59 in - North 5.8 mph - N/A   Clear
7:20 AM 37.4 °F 32.8 °F -2.2 °F 19% 29.62 in - North 5.8 mph - N/A   Clear
7:50 AM 37.4 °F 32.1 °F -4.0 °F 17% 29.62 in - North 6.9 mph - N/A   Clear
8:20 AM 39.2 °F 33.6 °F -2.2 °F 17% 29.65 in - North 8.1 mph - N/A   Clear
8:50 AM 41.0 °F 35.2 °F -4.0 °F 15% 29.65 in - North 9.2 mph - N/A   Clear
9:20 AM 41.0 °F 35.8 °F -4.0 °F 15% 29.68 in - North 8.1 mph - N/A   Clear
9:50 AM 42.8 °F 37.5 °F -4.0 °F 14% 29.68 in - North 9.2 mph - N/A   Clear
10:20 AM 42.8 °F 37.5 °F -2.2 °F 15% 29.68 in - North 9.2 mph - N/A   Clear
10:50 AM 44.6 °F 39.7 °F -2.2 °F 14% 29.68 in - North 9.2 mph - N/A   Clear
11:20 AM 46.4 °F 41.5 °F -0.4 °F 14% 29.71 in - NNW 10.4 mph - N/A   Clear
11:50 AM 46.4 °F 43.5 °F -0.4 °F 14% 29.71 in - North 5.8 mph - N/A   Clear
12:20 PM 46.4 °F 42.4 °F 1.4 °F 16% 29.71 in - NNE 8.1 mph - N/A   Clear
12:50 PM 46.4 °F 42.9 °F -0.4 °F 14% 29.71 in - North 6.9 mph - N/A   Clear
1:20 PM 48.2 °F - 1.4 °F 15% 29.71 in - NNE 6.9 mph - N/A   Clear
1:50 PM 48.2 °F - -0.4 °F 13% 29.71 in - NNE 6.9 mph - N/A   Clear
2:20 PM 48.2 °F - -0.4 °F 13% 29.74 in - NNE 6.9 mph - N/A   Clear
2:50 PM 48.2 °F - 1.4 °F 15% 29.74 in - NNE 6.9 mph - N/A   Clear
3:20 PM 48.2 °F - -0.4 °F 13% 29.74 in - NNE 8.1 mph - N/A   Clear
3:50 PM 48.2 °F - 1.4 °F 15% 29.74 in - North 8.1 mph - N/A   Clear
4:20 PM 48.2 °F - -0.4 °F 13% 29.77 in - North 6.9 mph - N/A   Clear
4:50 PM 48.2 °F - -2.2 °F 12% 29.77 in - North 5.8 mph - N/A   Clear
5:20 PM 46.4 °F 42.9 °F -0.4 °F 14% 29.77 in - NNE 6.9 mph - N/A   Clear
5:50 PM 44.6 °F 41.4 °F -2.2 °F 14% 29.80 in - North 5.8 mph - N/A   Clear
6:20 PM 42.8 °F 39.3 °F -2.2 °F 15% 29.80 in - North 5.8 mph - N/A   Clear
6:50 PM 42.8 °F 38.6 °F -2.2 °F 15% 29.83 in - North 6.9 mph - N/A   Clear
7:20 PM 41.0 °F 35.8 °F -2.2 °F 16% 29.83 in - North 8.1 mph - N/A   Clear
7:50 PM 41.0 °F 35.2 °F -4.0 °F 15% 29.86 in - North 9.2 mph - N/A   Clear
8:20 PM 41.0 °F 34.7 °F -4.0 °F 15% 29.86 in - North 10.4 mph - N/A   Clear
8:50 PM 41.0 °F 35.2 °F -5.8 °F 14% 29.89 in - North 9.2 mph - N/A   Clear
9:20 PM 41.0 °F 35.2 °F -5.8 °F 14% 29.89 in - North 9.2 mph - N/A   Clear
9:50 PM 41.0 °F 35.8 °F -5.8 °F 14% 29.92 in - North 8.1 mph - N/A   Clear
10:20 PM 39.2 °F 33.6 °F -5.8 °F 15% 29.92 in - North 8.1 mph - N/A   Clear
10:50 PM 39.2 °F 35.9 °F -5.8 °F 15% 29.92 in - NNW 4.6 mph - N/A   Clear
11:20 PM 33.8 °F - -4.0 °F 20% 29.95 in - Variable 2.3 mph - N/A   Clear
11:50 PM 32.0 °F 27.5 °F -2.2 °F 23% 29.95 in - NW 4.6 mph - N/A   Clear